Weather History for CWZG - May, 2013

Change the Weather History Date:

Sunday, May 26, 2013

  Actual Average Record
Temperature  
Mean Temperature 44 °F -  
Max Temperature 56 °F - - ()
Min Temperature 33 °F - - ()
Degree Days  
Heating Degree Days 20    
Moisture  
Dew Point 31 °F    
Average Humidity 62    
Maximum Humidity 96    
Minimum Humidity 30    
Precipitation  
Precipitation 0.00 in - - ()
Sea Level Pressure  
Sea Level Pressure 29.99 in    
Wind  
Wind Speed 3 mph ()    
Max Wind Speed 8 mph    
Max Gust Speed -    
T = Trace of Precipitation, MM = Missing Value Source: Averaged Metar Reports

Daily Weather History Graph

Daily Weather History Graph

Search for Another Location

Airport or City:

Trip Planner

Search our weather history database for the weather conditions in past years. The results will help you decide how hot, cold, wet, or windy it might be!

Date:

Astronomy

May. 26, 2013 Rise Set
Actual Time 5:37 AM MDT 9:41 PM MDT
Civil Twilight 4:53 AM MDT 10:25 PM MDT
Nautical Twilight 3:51 AM MDT 11:28 PM MDT
Astronomical Twilight 2:11 AM MDT 1:06 AM MDT
Moon 11:29 PM MDT 7:13 AM MDT
Length of Visible Light 17h 32m
Length of Day
16h 04m
Waning Gibbous, 96% of the Moon is Illuminated
May 26
Waning Gibbous
May 31
Last Quarter
Jun 8
New
Jun 16
First Quarter
Jun 23
Full

Hourly Weather History & Observations

Time (MDT) Temp. Windchill Dew Point Humidity Pressure Visibility Wind Dir Wind Speed Gust Speed Precip Events Conditions
12:00 AM 36.3 °F - 33.6 °F 90% 30.02 in - Calm Calm - N/A   Unknown
1:00 AM 37.6 °F - 35.4 °F 92% 30.02 in - SW 2.3 mph - N/A   Unknown
2:00 AM 34.0 °F - 31.6 °F 91% 30.03 in - East 2.3 mph - N/A   Unknown
3:00 AM 36.5 °F 33.9 °F 34.7 °F 93% 30.01 in - WSW 3.5 mph - N/A   Unknown
4:00 AM 35.2 °F 31.2 °F 33.8 °F 94% 30.01 in - WSW 4.6 mph - N/A   Unknown
5:00 AM 34.2 °F - 33.1 °F 96% 30.03 in - South 2.3 mph - N/A   Unknown
6:00 AM 33.8 °F 29.6 °F 32.9 °F 96% 30.04 in - SW 4.6 mph - N/A   Unknown
7:00 AM 34.7 °F 30.6 °F 33.3 °F 94% 30.04 in - SSW 4.6 mph - N/A   Unknown
8:00 AM 39.6 °F 34.7 °F 34.7 °F 83% 30.03 in - SW 6.9 mph - N/A   Unknown
9:00 AM 43.3 °F 39.9 °F 34.3 °F 71% 30.02 in - WSW 5.8 mph - N/A   Unknown
10:00 AM 49.5 °F - 31.3 °F 50% 30.00 in - WSW 6.9 mph - N/A   Unknown
11:00 AM 52.2 °F - 32.0 °F 46% 29.99 in - WSW 6.9 mph - N/A   Unknown
12:00 PM 53.2 °F - 30.0 °F 41% 29.98 in - WSW 5.8 mph - N/A   Unknown
1:00 PM 55.8 °F - 26.6 °F 33% 29.99 in - SW 8.1 mph - N/A   Unknown
2:00 PM 56.1 °F - 29.5 °F 36% 29.98 in - WSW 8.1 mph - N/A   Unknown
3:00 PM 55.9 °F - 25.2 °F 31% 29.97 in - SSW 5.8 mph - N/A   Unknown
4:00 PM 55.9 °F - 24.4 °F 30% 29.98 in - SW 8.1 mph - N/A   Unknown
5:00 PM 55.4 °F - 26.6 °F 33% 29.98 in - West 4.6 mph - N/A   Unknown
6:00 PM 56.8 °F - 25.2 °F 30% 29.96 in - WSW 3.5 mph - N/A   Unknown
7:00 PM 55.2 °F - 28.9 °F 37% 29.94 in - West 3.5 mph - N/A   Unknown
8:00 PM 54.7 °F - 28.4 °F 36% 29.93 in - West 3.5 mph - N/A   Unknown
9:00 PM 48.2 °F - 34.3 °F 59% 29.94 in - NW 1.2 mph - N/A   Unknown
10:00 PM 46.0 °F 44.8 °F 34.3 °F 64% 29.95 in - North 3.5 mph - N/A   Unknown
11:00 PM 43.9 °F - 35.8 °F 73% 29.97 in - NE 2.3 mph - N/A   Unknown